CDT,Max TemperatureF,Mean TemperatureF,Min TemperatureF,Max Dew PointF,MeanDew PointF,Min DewpointF,Max Humidity, Mean Humidity, Min Humidity, Max Sea Level PressureIn, Mean Sea Level PressureIn, Min Sea Level PressureIn, Max VisibilityMiles, Mean VisibilityMiles, Min VisibilityMiles, Max Wind SpeedMPH, Mean Wind SpeedMPH, Max Gust SpeedMPH,PrecipitationIn, CloudCover, Events, WindDirDegrees
2012-10-1,84,74,64,67,60,54,87,70,41,29.91,29.85,29.81,10,8,2,26,12,47,0.11,2,Rain-Thunderstorm,329
2012-10-2,84,74,63,67,61,52,90,68,32,29.98,29.93,29.89,10,10,10,14,7,,0.00,0,,316
2012-10-3,86,73,60,73,64,57,96,71,43,30.02,29.98,29.95,10,10,8,14,4,20,0.00,0,,134
2012-10-4,88,84,80,74,73,71,81,70,58,30.09,30.05,30.00,10,10,10,17,11,28,0.00,3,,155
2012-10-5,88,82,75,73,70,68,82,69,57,30.10,30.04,29.98,10,10,10,13,8,16,0.00,0,,148
2012-10-6,88,80,72,70,68,67,87,69,53,30.01,29.97,29.92,10,10,10,16,7,22,0.00,1,,121
2012-10-7,72,66,60,63,55,49,81,69,55,30.16,30.09,30.01,10,10,8,22,17,30,0.00,7,,22
2012-10-8,71,64,57,57,51,46,78,64,53,30.22,30.15,30.10,10,10,9,17,12,24,0.00,7,,28
2012-10-9,84,74,64,72,68,58,88,75,61,30.08,30.01,29.95,10,10,10,15,8,20,0.00,4,,126
2012-10-10,89,82,75,77,75,73,96,83,65,30.08,30.03,29.95,10,8,4,15,7,23,0.00,3,Rain,118
2012-10-11,87,82,77,76,74,73,94,80,63,30.13,30.08,30.04,10,10,7,16,10,24,0.06,2,Rain,140
2012-10-12,88,81,75,75,74,72,94,78,66,30.15,30.10,30.07,10,10,8,16,9,21,0.00,3,,133
2012-10-13,88,82,78,76,74,72,83,74,62,30.09,30.02,29.92,10,10,8,20,12,29,0.00,4,,150
2012-10-14,89,83,75,74,72,70,87,72,55,30.05,30.00,29.93,10,10,8,14,8,20,0.00,1,,163
2012-10-15,84,78,73,73,67,61,91,71,46,30.08,30.01,29.95,10,10,8,13,6,,0.00,2,,53
2012-10-16,82,76,71,74,70,64,94,80,64,29.97,29.85,29.77,10,10,8,18,9,24,0.02,4,Rain,104
2012-10-17,89,82,75,76,73,72,90,78,61,29.78,29.72,29.63,10,9,2,15,10,28,0.00,1,,173
2012-10-18,87,79,71,77,72,58,100,86,54,29.92,29.78,29.70,10,4,0,18,5,25,0.00,6,Fog,56
2012-10-19,84,75,68,63,56,51,68,51,33,30.02,29.96,29.92,10,10,10,15,10,,0.00,3,,73
2012-10-20,88,81,75,75,72,64,88,75,65,29.94,29.88,29.83,10,10,8,16,9,24,0.00,2,,153
2012-10-21,88,83,78,76,75,73,90,79,63,29.95,29.91,29.86,10,9,5,20,11,26,0.00,0,,153
2012-10-22,87,82,78,76,73,71,89,75,58,29.98,29.93,29.90,10,9,1,21,12,25,0.00,3,Rain,145
2012-10-23,88,82,78,71,70,68,77,69,55,29.98,29.94,29.91,10,10,10,14,11,21,0.00,1,,141
2012-10-24,88,81,75,72,70,67,82,70,51,29.98,29.93,29.88,10,10,10,16,9,16,0.00,1,,143
2012-10-25,88,83,78,74,72,70,84,74,61,29.91,29.86,29.83,10,10,9,16,9,20,0.00,0,,152
2012-10-26,80,68,57,74,57,46,94,73,53,30.20,30.04,29.91,10,10,10,22,13,31,0.00,6,Rain,6
2012-10-27,69,60,53,47,41,38,69,53,35,30.26,30.18,30.09,10,10,10,21,16,33,0.00,7,,357
2012-10-28,71,60,50,41,38,32,71,47,25,30.26,30.20,30.16,10,10,10,13,8,18,0.00,5,,34
2012-10-29,71,59,48,48,42,35,86,57,29,30.27,30.20,30.14,10,10,10,13,6,,0.00,0,,74
2012-10-30,79,64,50,63,56,46,96,69,45,30.14,30.06,29.98,10,10,2,12,4,,0.00,0,,137
2012-10-31,84,73,64,70,67,62,93,80,62,30.05,30.00,29.96,10,10,7,13,4,,0.00,1,Rain,136